Cloud_Cover
0 0 0 0 0 8 1 0 93 100 100 99 63 100 100 84 100 96 89 100 100 100 100 100 100 100 100 100 100 100 100 100 100 100 100 100 100 100 100 100 100 100 100
44 0 0 0 0 0 2 69 98 100 100 100 100 100 100 100 100 22 29 91 90 97 100 100 100 100 100 100 100 100 100 100 100 100 100 100 100 100 100 100 100 100 100
4 5 14 24 0 26 70 100 95 100 100 100 100 100 100 100 100 100 100 28 69 100 100 100 100 98 100 100 100 100 100 100 100 100 100 100 100 100 100 100 100 100 100
0 14 28 19 1 0 66 100 100 100 100 100 100 100 100 100 100 100 100 100 100 100 100 100 100 100 100 100 100 100 100 100 100 100 100 100 100 100 100 100 100 100 100
1 0 11 29 32 69 100 100 70 82 100 100 100 100 100 100 100 100 100 100 100 100 100 100 100 100 100 100 99 100 100 99 96 100 100 100 100 100 100 100 100 100 100
100 82 100 100 100 100 100 100 100 89 11 100 100 100 100 100 100 100 100 100 100 100 100 100 100 100 100 96 96 94 100 100 100 100 100 98 99 100 100 100 100 100 100
100 100 100 100 100 99 99 100 100 100 64 100 100 100 100 100 100 100 100 100 100 98 97 100 93 100 94 100 95 58 96 100 27 26 48 67 100 20 38 100 100 100 100
100 100 100 100 78 32 15 5 34 48 29 100 100 100 100 100 100 100 100 100 100 100 99 95 83 41 30 82 87 97 81 100 100 100 100 100 100 100 100 92 76 100 100
95 100 100 100 100 96 30 24 0 0 2 92 100 100 100 100 100 100 100 100 100 100 100 100 100 95 52 77 100 100 39 54 56 86 100 100 96 100 100 100 95 98 100
100 100 83 95 100 99 97 1 0 0 0 0 95 100 100 100 100 100 100 100 100 100 100 100 100 100 64 26 92 100 94 89 33 76 98 100 100 100 100 98 93 90 99
100 100 100 100 100 96 79 93 0 0 0 0 9 96 100 100 100 100 100 100 100 100 100 100 100 100 100 100 100 100 100 100 100 96 76 83 11 24 50 35 66 86 93
100 100 100 100 100 99 100 100 97 0 0 0 5 10 83 100 100 100 100 100 100 100 100 100 100 100 100 100 100 100 96 36 45 40 75 79 90 87 88 68 99 92 83
100 100 100 100 100 29 98 100 99 1 1 0 7 45 96 12 100 100 100 100 100 100 100 100 100 100 100 100 100 99 100 100 75 77 14 66 99 100 98 100 100 100 100
100 100 100 100 90 54 5 5 6 4 0 0 2 6 0 7 22 99 100 100 99 100 100 100 100 100 100 100 100 100 100 100 100 100 100 100 100 100 100 100 100 100 100
100 100 100 100 77 100 27 47 59 3 1 0 2 0 0 0 0 6 98 100 100 100 100 100 100 100 100 100 100 100 100 100 100 100 100 100 100 75 98 98 88 90 84
100 100 100 100 99 55 14 6 52 4 0 0 0 0 11 3 58 66 98 91 86 100 100 100 100 100 100 100 100 100 100 100 100 100 66 22 0 0 5 1 3 13 21
100 100 100 100 100 42 99 100 77 2 0 0 0 0 0 0 100 100 100 100 100 78 0 6 67 99 100 100 100 100 89 75 98 52 0 3 11 1 40 100 100 98 88
100 100 100 100 100 100 100 100 24 6 0 0 0 0 0 0 0 0 94 66 4 52 0 2 0 0 1 0 0 0 0 1 5 12 20 56 67 58 71 94 86 100 100
100 100 100 100 100 100 100 98 39 28 0 0 0 1 5 1 0 62 96 7 1 0 0 0 0 0 0 0 0 0 6 47 100 100 100 100 100 100 97 99 73 76 100
100 100 100 100 100 100 76 52 12 21 0 11 0 0 3 5 0 5 6 5 5 0 0 0 0 0 0 0 0 0 4 16 62 100 100 100 100 100 100 100 100 100 100
100 100 100 86 75 47 18 28 94 100 64 81 80 2 4 1 5 5 5 4 20 5 5 5 5 5 5 0 0 9 20 23 99 98 100 100 100 100 100 100 100 100 100
100 100 96 100 57 47 5 2 12 0 0 0 3 4 5 5 5 5 5 4 53 5 5 5 9 13 86 79 58 55 36 24 10 15 50 83 68 96 100 100 98 26 72
100 100 100 100 92 99 80 7 4 0 0 0 0 0 5 0 5 3 4 5 7 5 5 4 9 64 100 100 100 84 61 19 8 17 57 100 100 100 96 89 38 36 11
99 61 7 100 6 5 5 7 84 18 8 0 0 2 5 4 5 5 5 16 4 3 0 1 5 5 5 5 4 7 18 21 19 29 23 100 100 100 100 95 50 20 5
71 100 100 99 60 28 4 3 6 5 1 0 1 0 5 11 6 5 5 6 5 5 40 21 5 5 5 5 5 2 4 99 93 42 46 100 100 100 100 100 92 34 5
100 100 55 92 91 100 65 3 5 5 15 3 1 4 5 5 4 5 4 4 2 2 5 5 42 69 94 9 11 5 5 80 96 100 100 100 100 100 100 84 28 56 69